| time (UTC) | temp F | wind direction | speed MPH | gust MPH | rain 1hr in | rain 24hr in | rain mn in | humidity % | barometer mb |
| 20260504050023 | 36 | 42 | 2.0 | 8.0 | 0.01 | 0.04 | 0.04 | 93 | 1016.1 |
| 20260504044532 | 37 | 57 | 3.0 | 10.0 | 0.01 | 0.04 | 0.04 | 93 | 1016.1 |
| 20260504043028 | 37 | 60 | 1.0 | 8.0 | 0.00 | 0.03 | 0.03 | 93 | 1016.2 |
| 20260504041518 | 37 | 49 | 3.0 | 9.0 | 0.01 | 0.03 | 0.03 | 92 | 1016.3 |
| 20260504040020 | 38 | 59 | 2.0 | 6.0 | 0.01 | 0.03 | 0.03 | 92 | 1016.5 |
| 20260504034514 | 38 | 28 | 3.0 | 8.0 | 0.01 | 0.03 | 0.03 | 92 | 1016.4 |
| 20260504033013 | 38 | 51 | 1.0 | 9.0 | 0.01 | 0.03 | 0.03 | 92 | 1016.6 |
| 20260504031514 | 39 | 63 | 1.0 | 7.0 | 0.00 | 0.02 | 0.02 | 91 | 1016.6 |
| 20260504030010 | 39 | 65 | 0.0 | 7.0 | 0.00 | 0.02 | 0.02 | 91 | 1016.7 |
| 20260504024510 | 39 | 17 | 2.0 | 7.0 | 0.00 | 0.02 | 0.02 | 90 | 1016.8 |
| 20260504023009 | 40 | 77 | 1.0 | 4.0 | 0.01 | 0.02 | 0.02 | 91 | 1016.8 |
| 20260504021508 | 40 | 91 | 1.0 | 4.0 | 0.01 | 0.02 | 0.02 | 91 | 1016.9 |
| 20260504020009 | 40 | 53 | 0.0 | 5.0 | 0.01 | 0.02 | 0.02 | 92 | 1016.8 |
| 20260504014507 | 40 | 67 | 1.0 | 5.0 | 0.01 | 0.02 | 0.02 | 92 | 1016.9 |
| 20260504013008 | 40 | 95 | 2.0 | 7.0 | 0.00 | 0.01 | 0.01 | 91 | 1016.9 |
| 20260504011506 | 40 | 49 | 2.0 | 4.0 | 0.01 | 0.01 | 0.01 | 91 | 1017.0 |
| 20260504010005 | 40 | 70 | 1.0 | 5.0 | 0.01 | 0.01 | 0.01 | 91 | 1017.1 |
| 20260504004511 | 40 | 71 | 0.0 | 6.0 | 0.01 | 0.01 | 0.01 | 90 | 1017.1 |
| 20260504003004 | 40 | 71 | 0.0 | 3.0 | 0.01 | 0.01 | 0.01 | 90 | 1017.3 |
| 20260504001505 | 40 | 67 | 2.0 | 4.0 | 0.00 | 0.00 | 0.00 | 89 | 1017.5 |
| 20260504000003 | 40 | 86 | 3.0 | 10.0 | 0.00 | 0.00 | 0.00 | 88 | 1017.7 |
| 20260503234502 | 41 | 121 | 3.0 | 7.0 | 0.00 | 0.00 | 0.00 | 87 | 1017.8 |
| 20260503233001 | 41 | 57 | 2.0 | 6.0 | 0.00 | 0.00 | 0.00 | 85 | 1017.8 |
| 20260503231501 | 42 | 49 | 1.0 | 5.0 | 0.00 | 0.00 | 0.00 | 85 | 1017.8 |
| 20260503230116 | 42 | 59 | 2.0 | 6.0 | 0.00 | 0.00 | 0.00 | 84 | 1017.9 |
| 20260503224604 | 42 | 31 | 1.0 | 8.0 | 0.00 | 0.00 | 0.00 | 84 | 1017.8 |
| 20260503223101 | 42 | 63 | 4.0 | 12.0 | 0.00 | 0.00 | 0.00 | 84 | 1018.0 |
| 20260503221601 | 42 | 154 | 3.0 | 13.0 | 0.00 | 0.00 | 0.00 | 82 | 1017.9 |
| 20260503220057 | 42 | 171 | 9.0 | 13.0 | 0.00 | 0.00 | 0.00 | 82 | 1017.9 |
| 20260503214555 | 42 | 84 | 5.0 | 12.0 | 0.00 | 0.00 | 0.00 | 80 | 1018.0 |
| 20260503213101 | 43 | 143 | 7.0 | 12.0 | 0.00 | 0.00 | 0.00 | 75 | 1017.9 |
| 20260503211610 | 43 | 99 | 5.0 | 10.0 | 0.00 | 0.00 | 0.00 | 74 | 1017.9 |
| 20260503210051 | 44 | 40 | 2.0 | 10.0 | 0.00 | 0.00 | 0.00 | 72 | 1017.9 |
| 20260503204549 | 44 | 169 | 4.0 | 12.0 | 0.00 | 0.00 | 0.00 | 65 | 1017.9 |
| 20260503203049 | 44 | 101 | 9.0 | 18.0 | 0.00 | 0.00 | 0.00 | 64 | 1017.6 |
| 20260503201547 | 45 | 17 | 4.0 | 17.0 | 0.00 | 0.00 | 0.00 | 60 | 1017.7 |
| 20260503200055 | 46 | 90 | 5.0 | 16.0 | 0.00 | 0.00 | 0.00 | 59 | 1017.6 |
| 20260503194545 | 46 | 101 | 3.0 | 13.0 | 0.00 | 0.00 | 0.00 | 58 | 1017.6 |
| 20260503193055 | 46 | 113 | 7.0 | 11.0 | 0.00 | 0.00 | 0.00 | 55 | 1017.4 |
| 20260503191545 | 46 | 144 | 5.0 | 9.0 | 0.00 | 0.00 | 0.00 | 55 | 1017.4 |
| 20260503190048 | 46 | 97 | 9.0 | 14.0 | 0.00 | 0.00 | 0.00 | 54 | 1017.4 |
| 20260503184551 | 47 | 142 | 7.0 | 11.0 | 0.00 | 0.00 | 0.00 | 53 | 1017.3 |
| 20260503183042 | 47 | 67 | 5.0 | 12.0 | 0.00 | 0.00 | 0.00 | 53 | 1017.3 |
| 20260503181545 | 46 | 155 | 7.0 | 13.0 | 0.00 | 0.00 | 0.00 | 54 | 1017.3 |
| 20260503180046 | 45 | 132 | 9.0 | 16.0 | 0.00 | 0.00 | 0.00 | 56 | 1017.2 |
| 20260503174542 | 44 | 150 | 8.0 | 16.0 | 0.00 | 0.00 | 0.00 | 57 | 1017.2 |
| 20260503173035 | 44 | 115 | 7.0 | 14.0 | 0.00 | 0.00 | 0.00 | 60 | 1017.3 |
| 20260503171520 | 42 | 123 | 9.0 | 16.0 | 0.00 | 0.00 | 0.00 | 61 | 1017.4 |
| 20260503150108 | 39 | 171 | 5.0 | 10.0 | 0.00 | 0.00 | 0.00 | 65 | 1017.3 |
| 20260503081534 | 40 | 174 | 11.0 | 21.0 | 0.00 | 0.00 | 0.00 | 60 | 1016.8 |
| 20260503071509 | 40 | 115 | 15.0 | 21.0 | 0.00 | 0.00 | 0.00 | 58 | 1016.2 |